| time (UTC) | temp F | wind direction | speed MPH | gust MPH | rain 1hr in | rain 24hr in | rain mn in | humidity % | barometer mb |
| 20260506193118 | 58 | 181 | 1.0 | 2.0 | 0.00 | 0.00 | 0.00 | 86 | 1012.8 |
| 20260506192648 | 58 | 181 | 1.0 | 2.0 | 0.00 | 0.00 | 0.00 | 86 | 1012.8 |
| 20260506192137 | 58 | 181 | 1.0 | 2.0 | 0.00 | 0.00 | 0.00 | 86 | 1012.8 |
| 20260506191620 | 58 | 181 | 1.0 | 2.0 | 0.00 | 0.00 | 0.00 | 86 | 1012.9 |
| 20260506191129 | 58 | 181 | 0.0 | 2.0 | 0.00 | 0.00 | 0.00 | 86 | 1012.8 |
| 20260506190634 | 58 | 182 | 1.0 | 2.0 | 0.00 | 0.00 | 0.00 | 87 | 1012.8 |
| 20260506190115 | 57 | 180 | 1.0 | 1.0 | 0.00 | 0.00 | 0.00 | 87 | 1012.9 |
| 20260506185625 | 57 | 180 | 0.0 | 1.0 | 0.00 | 0.00 | 0.00 | 86 | 1012.9 |
| 20260506185136 | 57 | 180 | 0.0 | 1.0 | 0.00 | 0.00 | 0.00 | 85 | 1012.9 |
| 20260506184619 | 57 | 180 | 0.0 | 1.0 | 0.00 | 0.00 | 0.00 | 86 | 1013.0 |
| 20260506184128 | 57 | 180 | 0.0 | 1.0 | 0.00 | 0.00 | 0.00 | 85 | 1013.0 |
| 20260506183637 | 58 | 180 | 0.0 | 1.0 | 0.00 | 0.00 | 0.00 | 85 | 1013.0 |
| 20260506183119 | 58 | 180 | 0.0 | 2.0 | 0.00 | 0.00 | 0.00 | 85 | 1013.0 |
| 20260506182625 | 58 | 180 | 1.0 | 2.0 | 0.00 | 0.00 | 0.00 | 86 | 1013.1 |
| 20260506182134 | 57 | 180 | 0.0 | 1.0 | 0.00 | 0.00 | 0.00 | 86 | 1013.0 |
| 20260506181616 | 57 | 181 | 1.0 | 1.0 | 0.00 | 0.00 | 0.00 | 86 | 1013.1 |
| 20260506181128 | 57 | 180 | 0.0 | 0.0 | 0.00 | 0.00 | 0.00 | 85 | 1013.0 |
| 20260506180611 | 57 | 180 | 0.0 | 1.0 | 0.00 | 0.00 | 0.00 | 85 | 1013.0 |
| 20260506180119 | 58 | 180 | 0.0 | 1.0 | 0.00 | 0.00 | 0.00 | 85 | 1013.0 |
| 20260506175628 | 58 | 181 | 1.0 | 1.0 | 0.00 | 0.00 | 0.00 | 85 | 1013.0 |
| 20260506175133 | 58 | 180 | 0.0 | 1.0 | 0.00 | 0.00 | 0.00 | 85 | 1013.2 |
| 20260506174615 | 58 | 189 | 0.0 | 0.0 | 0.00 | 0.00 | 0.00 | 84 | 1013.2 |
| 20260506174127 | 58 | 189 | 0.0 | 0.0 | 0.00 | 0.00 | 0.00 | 85 | 1013.3 |
| 20260506173637 | 58 | 189 | 0.0 | 0.0 | 0.00 | 0.00 | 0.00 | 84 | 1013.4 |
| 20260506173111 | 59 | 189 | 0.0 | 1.0 | 0.00 | 0.00 | 0.00 | 84 | 1013.3 |
| 20260506172622 | 59 | 190 | 0.0 | 1.0 | 0.00 | 0.00 | 0.00 | 84 | 1013.5 |
| 20260506172131 | 59 | 190 | 0.0 | 1.0 | 0.00 | 0.00 | 0.00 | 84 | 1013.5 |
| 20260506171613 | 59 | 190 | 1.0 | 2.0 | 0.00 | 0.00 | 0.00 | 84 | 1013.5 |
| 20260506171141 | 60 | 190 | 2.0 | 3.0 | 0.00 | 0.00 | 0.00 | 84 | 1013.5 |
| 20260506170112 | 60 | 171 | 1.0 | 1.0 | 0.00 | 0.00 | 0.00 | 83 | 1013.5 |
| 20260506165611 | 60 | 171 | 0.0 | 1.0 | 0.00 | 0.00 | 0.00 | 83 | 1013.6 |
| 20260506165120 | 61 | 177 | 0.0 | 2.0 | 0.00 | 0.00 | 0.00 | 83 | 1013.7 |
| 20260506164633 | 61 | 177 | 0.0 | 2.0 | 0.00 | 0.00 | 0.00 | 83 | 1013.8 |
| 20260506164115 | 61 | 165 | 0.0 | 4.0 | 0.00 | 0.00 | 0.00 | 83 | 1013.8 |
| 20260506163624 | 61 | 165 | 0.0 | 4.0 | 0.00 | 0.00 | 0.00 | 83 | 1013.8 |
| 20260506163112 | 61 | 170 | 0.0 | 2.0 | 0.00 | 0.00 | 0.00 | 83 | 1013.8 |
| 20260506162617 | 61 | 193 | 1.0 | 4.0 | 0.00 | 0.00 | 0.00 | 82 | 1013.7 |
| 20260506162125 | 61 | 186 | 1.0 | 4.0 | 0.00 | 0.00 | 0.00 | 82 | 1013.7 |
| 20260506161634 | 61 | 150 | 1.0 | 3.0 | 0.00 | 0.00 | 0.00 | 82 | 1013.7 |
| 20260506161117 | 61 | 188 | 1.0 | 4.0 | 0.00 | 0.00 | 0.00 | 82 | 1013.8 |
| 20260506160647 | 61 | 165 | 1.0 | 3.0 | 0.00 | 0.00 | 0.00 | 82 | 1013.9 |
| 20260506160156 | 61 | 188 | 1.0 | 3.0 | 0.00 | 0.00 | 0.00 | 82 | 1014.0 |
| 20260506155616 | 61 | 110 | 1.0 | 3.0 | 0.00 | 0.00 | 0.00 | 82 | 1014.0 |
| 20260506155123 | 61 | 165 | 1.0 | 3.0 | 0.00 | 0.00 | 0.00 | 82 | 1014.1 |
| 20260506154631 | 61 | 181 | 1.0 | 2.0 | 0.00 | 0.00 | 0.00 | 81 | 1014.0 |
| 20260506154115 | 61 | 143 | 1.0 | 3.0 | 0.00 | 0.00 | 0.00 | 81 | 1014.1 |
| 20260506153645 | 62 | 181 | 1.0 | 2.0 | 0.00 | 0.00 | 0.00 | 81 | 1014.1 |
| 20260506153132 | 62 | 169 | 1.0 | 2.0 | 0.00 | 0.00 | 0.00 | 81 | 1014.2 |
| 20260506152613 | 62 | 122 | 1.0 | 2.0 | 0.00 | 0.00 | 0.00 | 81 | 1014.1 |
| 20260506151614 | 62 | 288 | 2.0 | 5.0 | 0.00 | 0.00 | 0.00 | 80 | 1014.1 |
| 20260506151145 | 62 | 131 | 1.0 | 4.0 | 0.00 | 0.00 | 0.00 | 80 | 1014.1 |
| 20260506150629 | 62 | 132 | 1.0 | 5.0 | 0.00 | 0.00 | 0.00 | 80 | 1014.2 |
| 20260506150137 | 62 | 178 | 1.0 | 6.0 | 0.00 | 0.00 | 0.00 | 80 | 1014.1 |
| 20260506145619 | 62 | 167 | 1.0 | 5.0 | 0.00 | 0.00 | 0.00 | 80 | 1014.2 |
| 20260506144620 | 62 | 111 | 1.0 | 4.0 | 0.00 | 0.00 | 0.00 | 79 | 1014.3 |
| 20260506144129 | 62 | 137 | 1.0 | 4.0 | 0.00 | 0.00 | 0.00 | 78 | 1014.3 |
| 20260506143612 | 62 | 169 | 1.0 | 4.0 | 0.00 | 0.00 | 0.00 | 78 | 1014.3 |
| 20260506143142 | 62 | 193 | 1.0 | 3.0 | 0.00 | 0.00 | 0.00 | 78 | 1014.2 |
| 20260506142611 | 62 | 195 | 1.0 | 3.0 | 0.00 | 0.00 | 0.00 | 78 | 1014.4 |
| 20260506142117 | 62 | 143 | 0.0 | 3.0 | 0.00 | 0.00 | 0.00 | 78 | 1014.4 |
| 20260506141628 | 62 | 161 | 0.0 | 4.0 | 0.00 | 0.00 | 0.00 | 78 | 1014.5 |
| 20260506141137 | 62 | 89 | 0.0 | 4.0 | 0.00 | 0.00 | 0.00 | 78 | 1014.5 |
| 20260506140640 | 62 | 135 | 1.0 | 4.0 | 0.00 | 0.00 | 0.00 | 78 | 1014.5 |
| 20260506140127 | 62 | 171 | 1.0 | 4.0 | 0.00 | 0.00 | 0.00 | 78 | 1014.5 |
| 20260506135636 | 62 | 171 | 0.0 | 2.0 | 0.00 | 0.00 | 0.00 | 78 | 1014.5 |
| 20260506135118 | 62 | 162 | 0.0 | 2.0 | 0.00 | 0.00 | 0.00 | 78 | 1014.6 |
| 20260506134616 | 61 | 143 | 0.0 | 2.0 | 0.00 | 0.00 | 0.00 | 78 | 1014.5 |
| 20260506134147 | 61 | 176 | 0.0 | 2.0 | 0.00 | 0.00 | 0.00 | 78 | 1014.6 |
| 20260506133637 | 61 | 169 | 0.0 | 1.0 | 0.00 | 0.00 | 0.00 | 77 | 1014.4 |
| 20260506133117 | 62 | 170 | 0.0 | 1.0 | 0.00 | 0.00 | 0.00 | 77 | 1014.5 |
| 20260506132624 | 62 | 170 | 0.0 | 1.0 | 0.00 | 0.00 | 0.00 | 76 | 1014.5 |
| 20260506132136 | 62 | 170 | 0.0 | 2.0 | 0.00 | 0.00 | 0.00 | 76 | 1014.5 |
| 20260506131619 | 62 | 167 | 0.0 | 1.0 | 0.00 | 0.00 | 0.00 | 76 | 1014.5 |
| 20260506131129 | 63 | 174 | 0.0 | 3.0 | 0.00 | 0.00 | 0.00 | 75 | 1014.5 |
| 20260506130634 | 63 | 138 | 0.0 | 1.0 | 0.00 | 0.00 | 0.00 | 75 | 1014.7 |
| 20260506125656 | 63 | 169 | 0.0 | 3.0 | 0.00 | 0.00 | 0.00 | 75 | 1014.7 |
| 20260506125140 | 63 | 186 | 2.0 | 3.0 | 0.00 | 0.00 | 0.00 | 75 | 1014.7 |
| 20260506124628 | 63 | 173 | 0.0 | 4.0 | 0.00 | 0.00 | 0.00 | 74 | 1014.6 |
| 20260506124111 | 63 | 333 | 0.0 | 3.0 | 0.00 | 0.00 | 0.00 | 74 | 1014.7 |
| 20260506123642 | 63 | 174 | 0.0 | 2.0 | 0.00 | 0.00 | 0.00 | 74 | 1014.6 |
| 20260506123111 | 63 | 165 | 0.0 | 2.0 | 0.00 | 0.00 | 0.00 | 73 | 1014.6 |
| 20260506122620 | 63 | 154 | 0.0 | 2.0 | 0.00 | 0.00 | 0.00 | 73 | 1014.5 |
| 20260506122146 | 63 | 162 | 1.0 | 3.0 | 0.00 | 0.00 | 0.00 | 73 | 1014.5 |
| 20260506121634 | 63 | 184 | 1.0 | 4.0 | 0.00 | 0.00 | 0.00 | 73 | 1014.5 |
| 20260506121117 | 63 | 205 | 1.0 | 4.0 | 0.00 | 0.00 | 0.00 | 73 | 1014.3 |
| 20260506120648 | 63 | 186 | 1.0 | 4.0 | 0.00 | 0.00 | 0.00 | 73 | 1014.2 |
| 20260506120156 | 63 | 186 | 0.0 | 3.0 | 0.00 | 0.00 | 0.00 | 72 | 1014.1 |
| 20260506115615 | 63 | 190 | 1.0 | 4.0 | 0.00 | 0.00 | 0.00 | 72 | 1014.2 |
| 20260506115124 | 63 | 167 | 1.0 | 4.0 | 0.00 | 0.00 | 0.00 | 72 | 1014.2 |
| 20260506114630 | 63 | 172 | 1.0 | 2.0 | 0.00 | 0.00 | 0.00 | 71 | 1014.1 |
| 20260506114132 | 63 | 155 | 0.0 | 3.0 | 0.00 | 0.00 | 0.00 | 71 | 1014.1 |
| 20260506113621 | 63 | 167 | 0.0 | 2.0 | 0.00 | 0.00 | 0.00 | 71 | 1014.0 |
| 20260506113151 | 63 | 174 | 1.0 | 2.0 | 0.00 | 0.00 | 0.00 | 71 | 1014.0 |
| 20260506112634 | 63 | 170 | 0.0 | 3.0 | 0.00 | 0.00 | 0.00 | 70 | 1014.1 |
| 20260506112122 | 63 | 216 | 1.0 | 3.0 | 0.00 | 0.00 | 0.00 | 70 | 1014.1 |
| 20260506111654 | 63 | 220 | 1.0 | 3.0 | 0.00 | 0.00 | 0.00 | 70 | 1014.0 |
| 20260506111115 | 63 | 101 | 0.0 | 3.0 | 0.00 | 0.00 | 0.00 | 69 | 1014.0 |
| 20260506110642 | 63 | 138 | 1.0 | 3.0 | 0.00 | 0.00 | 0.00 | 69 | 1013.9 |
| 20260506110130 | 63 | 123 | 1.0 | 4.0 | 0.00 | 0.00 | 0.00 | 69 | 1014.1 |
| 20260506105635 | 63 | 259 | 1.0 | 4.0 | 0.00 | 0.00 | 0.00 | 69 | 1014.0 |
| 20260506105123 | 63 | 158 | 0.0 | 4.0 | 0.00 | 0.00 | 0.00 | 69 | 1013.9 |
| 20260506104632 | 64 | 185 | 1.0 | 4.0 | 0.00 | 0.00 | 0.00 | 69 | 1013.9 |
| 20260506104112 | 64 | 70 | 1.0 | 4.0 | 0.00 | 0.00 | 0.00 | 68 | 1013.8 |
| 20260506103622 | 64 | 141 | 1.0 | 4.0 | 0.00 | 0.00 | 0.00 | 68 | 1013.8 |
| 20260506103142 | 64 | 183 | 1.0 | 3.0 | 0.00 | 0.00 | 0.00 | 68 | 1013.7 |
| 20260506102626 | 64 | 188 | 1.0 | 3.0 | 0.00 | 0.00 | 0.00 | 68 | 1013.8 |
| 20260506102136 | 64 | 158 | 1.0 | 3.0 | 0.00 | 0.00 | 0.00 | 69 | 1013.9 |
| 20260506101619 | 64 | 141 | 0.0 | 4.0 | 0.00 | 0.00 | 0.00 | 68 | 1013.9 |
| 20260506101150 | 64 | 94 | 2.0 | 4.0 | 0.00 | 0.00 | 0.00 | 68 | 1013.9 |
| 20260506100611 | 64 | 208 | 1.0 | 7.0 | 0.00 | 0.00 | 0.00 | 68 | 1013.9 |
| 20260506100120 | 65 | 247 | 2.0 | 7.0 | 0.00 | 0.00 | 0.00 | 68 | 1013.9 |
| 20260506095627 | 65 | 181 | 1.0 | 6.0 | 0.00 | 0.00 | 0.00 | 68 | 1014.0 |
| 20260506095132 | 65 | 169 | 1.0 | 6.0 | 0.00 | 0.00 | 0.00 | 67 | 1014.0 |
| 20260506094634 | 65 | 179 | 1.0 | 4.0 | 0.00 | 0.00 | 0.00 | 67 | 1014.2 |
| 20260506094122 | 66 | 91 | 0.0 | 4.0 | 0.00 | 0.00 | 0.00 | 67 | 1014.2 |
| 20260506093633 | 66 | 181 | 1.0 | 5.0 | 0.00 | 0.00 | 0.00 | 66 | 1014.1 |
| 20260506093114 | 67 | 146 | 1.0 | 5.0 | 0.00 | 0.00 | 0.00 | 66 | 1014.3 |
| 20260506092624 | 67 | 142 | 1.0 | 8.0 | 0.00 | 0.00 | 0.00 | 65 | 1014.3 |
| 20260506092133 | 67 | 117 | 1.0 | 4.0 | 0.00 | 0.00 | 0.00 | 66 | 1014.1 |
| 20260506091636 | 67 | 169 | 1.0 | 4.0 | 0.00 | 0.00 | 0.00 | 66 | 1014.2 |
| 20260506091121 | 67 | 124 | 1.0 | 5.0 | 0.00 | 0.00 | 0.00 | 66 | 1014.2 |
| 20260506090631 | 67 | 164 | 2.0 | 5.0 | 0.00 | 0.00 | 0.00 | 65 | 1014.2 |
| 20260506090110 | 68 | 295 | 1.0 | 5.0 | 0.00 | 0.00 | 0.00 | 64 | 1014.3 |
| 20260506085619 | 68 | 111 | 1.0 | 6.0 | 0.00 | 0.00 | 0.00 | 64 | 1014.1 |
| 20260506085150 | 69 | 319 | 2.0 | 6.0 | 0.00 | 0.00 | 0.00 | 63 | 1014.2 |
| 20260506084624 | 69 | 172 | 1.0 | 8.0 | 0.00 | 0.00 | 0.00 | 62 | 1014.2 |
| 20260506084133 | 69 | 133 | 2.0 | 8.0 | 0.00 | 0.00 | 0.00 | 62 | 1014.3 |
| 20260506083612 | 69 | 137 | 2.0 | 6.0 | 0.00 | 0.00 | 0.00 | 62 | 1014.3 |
| 20260506083121 | 69 | 223 | 1.0 | 6.0 | 0.00 | 0.00 | 0.00 | 62 | 1014.3 |
| 20260506082630 | 69 | 37 | 2.0 | 10.0 | 0.00 | 0.00 | 0.00 | 63 | 1014.4 |
| 20260506082113 | 69 | 97 | 1.0 | 10.0 | 0.00 | 0.00 | 0.00 | 63 | 1014.4 |
| 20260506081643 | 69 | 143 | 2.0 | 7.0 | 0.00 | 0.00 | 0.00 | 63 | 1014.5 |
| 20260506081131 | 69 | 11 | 1.0 | 6.0 | 0.00 | 0.00 | 0.00 | 63 | 1014.5 |
| 20260506080615 | 69 | 250 | 3.0 | 7.0 | 0.00 | 0.00 | 0.00 | 62 | 1014.5 |
| 20260506080125 | 69 | 320 | 4.0 | 7.0 | 0.00 | 0.00 | 0.00 | 62 | 1014.7 |
| 20260506073111 | 70 | 80 | 2.0 | 8.0 | 0.00 | 0.00 | 0.00 | 63 | 1014.9 |
| 20260506072611 | 69 | 104 | 3.0 | 8.0 | 0.00 | 0.00 | 0.00 | 64 | 1014.9 |
| 20260506072137 | 69 | 82 | 4.0 | 10.0 | 0.00 | 0.00 | 0.00 | 64 | 1014.9 |
| 20260506071620 | 69 | 44 | 5.0 | 11.0 | 0.00 | 0.00 | 0.00 | 64 | 1015.0 |
| 20260506071129 | 69 | 76 | 3.0 | 11.0 | 0.00 | 0.00 | 0.00 | 63 | 1014.9 |
| 20260506070613 | 70 | 72 | 4.0 | 6.0 | 0.00 | 0.00 | 0.00 | 63 | 1014.8 |
| 20260506070121 | 69 | 196 | 2.0 | 9.0 | 0.00 | 0.00 | 0.00 | 64 | 1014.8 |
| 20260506062129 | 70 | 14 | 6.0 | 10.0 | 0.00 | 0.00 | 0.00 | 62 | 1014.5 |
| 20260506061614 | 70 | 314 | 3.0 | 10.0 | 0.00 | 0.00 | 0.00 | 63 | 1014.6 |
| 20260506061125 | 69 | 17 | 3.0 | 11.0 | 0.00 | 0.00 | 0.00 | 63 | 1014.8 |
| 20260506060629 | 69 | 84 | 6.0 | 11.0 | 0.00 | 0.00 | 0.00 | 63 | 1014.8 |
| 20260506060113 | 69 | 15 | 6.0 | 10.0 | 0.00 | 0.00 | 0.00 | 62 | 1014.8 |
| 20260506051126 | 70 | 131 | 4.0 | 11.0 | 0.00 | 0.00 | 0.00 | 62 | 1015.0 |
| 20260506050636 | 70 | 82 | 4.0 | 9.0 | 0.00 | 0.00 | 0.00 | 61 | 1014.9 |
| 20260506050120 | 70 | 4 | 5.0 | 9.0 | 0.00 | 0.00 | 0.00 | 61 | 1015.1 |
| 20260506045120 | 70 | 113 | 3.0 | 8.0 | 0.00 | 0.00 | 0.00 | 63 | 1015.1 |
| 20260506044629 | 69 | 104 | 3.0 | 8.0 | 0.00 | 0.00 | 0.00 | 63 | 1015.1 |
| 20260506044112 | 69 | 299 | 5.0 | 8.0 | 0.00 | 0.00 | 0.00 | 63 | 1015.1 |
| 20260506043643 | 68 | 96 | 2.0 | 11.0 | 0.00 | 0.00 | 0.00 | 63 | 1015.2 |
| 20260506043154 | 69 | 27 | 4.0 | 11.0 | 0.00 | 0.00 | 0.00 | 63 | 1015.3 |
| 20260506042616 | 69 | 75 | 2.0 | 9.0 | 0.00 | 0.00 | 0.00 | 63 | 1015.4 |
| 20260506042125 | 69 | 70 | 3.0 | 9.0 | 0.00 | 0.00 | 0.00 | 62 | 1015.5 |
| 20260506041635 | 69 | 127 | 4.0 | 11.0 | 0.00 | 0.00 | 0.00 | 62 | 1015.7 |
| 20260506041114 | 69 | 51 | 5.0 | 11.0 | 0.00 | 0.00 | 0.00 | 62 | 1015.7 |
| 20260506040625 | 69 | 107 | 3.0 | 10.0 | 0.00 | 0.00 | 0.00 | 62 | 1015.9 |
| 20260506040136 | 69 | 114 | 5.0 | 10.0 | 0.00 | 0.00 | 0.00 | 61 | 1016.1 |
| 20260506035113 | 69 | 23 | 4.0 | 11.0 | 0.00 | 0.00 | 0.00 | 62 | 1016.0 |
| 20260506034624 | 69 | 51 | 5.0 | 11.0 | 0.00 | 0.00 | 0.00 | 62 | 1016.0 |
| 20260506034134 | 69 | 86 | 5.0 | 11.0 | 0.00 | 0.00 | 0.00 | 62 | 1016.2 |
| 20260506033616 | 69 | 100 | 5.0 | 9.0 | 0.00 | 0.00 | 0.00 | 61 | 1016.4 |
| 20260506033126 | 69 | 20 | 3.0 | 10.0 | 0.00 | 0.00 | 0.00 | 62 | 1016.4 |
| 20260506032633 | 68 | 87 | 4.0 | 10.0 | 0.00 | 0.00 | 0.00 | 62 | 1016.4 |
| 20260506032118 | 69 | 68 | 5.0 | 12.0 | 0.00 | 0.00 | 0.00 | 61 | 1016.5 |
| 20260506031630 | 68 | 95 | 4.0 | 12.0 | 0.00 | 0.00 | 0.00 | 62 | 1016.4 |
| 20260506031113 | 68 | 79 | 3.0 | 11.0 | 0.00 | 0.00 | 0.00 | 62 | 1016.6 |
| 20260506030623 | 68 | 84 | 3.0 | 11.0 | 0.00 | 0.00 | 0.00 | 62 | 1016.5 |
| 20260506030134 | 68 | 58 | 4.0 | 9.0 | 0.00 | 0.00 | 0.00 | 62 | 1016.8 |
| 20260506025614 | 68 | 103 | 3.0 | 6.0 | 0.00 | 0.00 | 0.00 | 62 | 1016.7 |
| 20260506025124 | 68 | 252 | 3.0 | 8.0 | 0.00 | 0.00 | 0.00 | 62 | 1016.7 |
| 20260506024630 | 67 | 162 | 3.0 | 8.0 | 0.00 | 0.00 | 0.00 | 62 | 1016.9 |
| 20260506024112 | 67 | 121 | 4.0 | 9.0 | 0.00 | 0.00 | 0.00 | 62 | 1017.0 |
| 20260506023621 | 67 | 58 | 5.0 | 9.0 | 0.00 | 0.00 | 0.00 | 62 | 1017.1 |
| 20260506023132 | 67 | 86 | 2.0 | 5.0 | 0.00 | 0.00 | 0.00 | 63 | 1017.1 |
| 20260506022615 | 68 | 30 | 2.0 | 9.0 | 0.00 | 0.00 | 0.00 | 63 | 1017.2 |
| 20260506022125 | 67 | 62 | 4.0 | 9.0 | 0.00 | 0.00 | 0.00 | 62 | 1017.0 |
| 20260506021635 | 67 | 68 | 3.0 | 10.0 | 0.00 | 0.00 | 0.00 | 62 | 1017.2 |
| 20260506021118 | 66 | 62 | 5.0 | 10.0 | 0.00 | 0.00 | 0.00 | 63 | 1017.3 |
| 20260506020625 | 67 | 20 | 5.0 | 9.0 | 0.00 | 0.00 | 0.00 | 63 | 1017.4 |
| 20260506020126 | 67 | 98 | 5.0 | 9.0 | 0.00 | 0.00 | 0.00 | 62 | 1017.4 |
| 20260506015636 | 67 | 41 | 4.0 | 8.0 | 0.00 | 0.00 | 0.00 | 62 | 1017.3 |
| 20260506015120 | 67 | 87 | 3.0 | 9.0 | 0.00 | 0.00 | 0.00 | 62 | 1017.3 |
| 20260506014629 | 67 | 71 | 5.0 | 11.0 | 0.00 | 0.00 | 0.00 | 62 | 1017.3 |
| 20260506014113 | 67 | 89 | 5.0 | 11.0 | 0.00 | 0.00 | 0.00 | 61 | 1017.2 |
| 20260506013623 | 67 | 347 | 3.0 | 8.0 | 0.00 | 0.00 | 0.00 | 62 | 1017.1 |
| 20260506013113 | 67 | 37 | 3.0 | 7.0 | 0.00 | 0.00 | 0.00 | 61 | 1017.3 |
| 20260506012620 | 66 | 264 | 1.0 | 8.0 | 0.00 | 0.00 | 0.00 | 63 | 1017.3 |
| 20260506012130 | 66 | 53 | 3.0 | 8.0 | 0.00 | 0.00 | 0.00 | 62 | 1017.4 |
| 20260506011615 | 65 | 53 | 3.0 | 8.0 | 0.00 | 0.00 | 0.00 | 63 | 1017.4 |
| 20260506011145 | 65 | 29 | 3.0 | 8.0 | 0.00 | 0.00 | 0.00 | 62 | 1017.4 |
| 20260506010634 | 65 | 84 | 2.0 | 9.0 | 0.00 | 0.00 | 0.00 | 63 | 1017.4 |
| 20260506010115 | 65 | 48 | 4.0 | 9.0 | 0.00 | 0.00 | 0.00 | 62 | 1017.4 |
| 20260506005625 | 66 | 79 | 5.0 | 10.0 | 0.00 | 0.00 | 0.00 | 61 | 1017.4 |
| 20260506005130 | 66 | 16 | 4.0 | 10.0 | 0.00 | 0.00 | 0.00 | 61 | 1017.3 |
| 20260506004613 | 66 | 75 | 4.0 | 9.0 | 0.00 | 0.00 | 0.00 | 61 | 1017.3 |
| 20260506004123 | 66 | 71 | 4.0 | 9.0 | 0.00 | 0.00 | 0.00 | 61 | 1017.4 |
| 20260506003633 | 66 | 49 | 3.0 | 8.0 | 0.00 | 0.00 | 0.00 | 60 | 1017.3 |
| 20260506003136 | 66 | 52 | 5.0 | 8.0 | 0.00 | 0.00 | 0.00 | 61 | 1017.5 |
| 20260506002623 | 66 | 89 | 5.0 | 7.0 | 0.00 | 0.00 | 0.00 | 61 | 1017.3 |
| 20260506002132 | 66 | 70 | 4.0 | 7.0 | 0.00 | 0.00 | 0.00 | 61 | 1017.3 |
| 20260506001636 | 66 | 44 | 3.0 | 7.0 | 0.00 | 0.00 | 0.00 | 61 | 1017.2 |
| 20260506001121 | 65 | 56 | 2.0 | 7.0 | 0.00 | 0.00 | 0.00 | 62 | 1017.4 |
| 20260506000630 | 65 | 123 | 3.0 | 6.0 | 0.00 | 0.00 | 0.00 | 62 | 1017.3 |
| 20260506000114 | 65 | 275 | 3.0 | 7.0 | 0.00 | 0.00 | 0.00 | 62 | 1017.3 |
| 20260505235645 | 65 | 128 | 3.0 | 9.0 | 0.00 | 0.00 | 0.00 | 62 | 1017.2 |
| 20260505235134 | 65 | 32 | 2.0 | 8.0 | 0.00 | 0.00 | 0.00 | 60 | 1017.2 |
| 20260505234617 | 65 | 49 | 3.0 | 7.0 | 0.00 | 0.00 | 0.00 | 59 | 1017.2 |
| 20260505234130 | 65 | 144 | 2.0 | 6.0 | 0.00 | 0.00 | 0.00 | 60 | 1017.0 |
| 20260505233618 | 64 | 225 | 2.0 | 6.0 | 0.00 | 0.00 | 0.00 | 60 | 1017.1 |
| 20260505233128 | 64 | 75 | 2.0 | 7.0 | 0.00 | 0.00 | 0.00 | 61 | 1017.0 |
| 20260505232614 | 64 | 221 | 4.0 | 7.0 | 0.00 | 0.00 | 0.00 | 60 | 1016.9 |
| 20260505232128 | 64 | 155 | 2.0 | 6.0 | 0.00 | 0.00 | 0.00 | 61 | 1017.0 |
| 20260505231618 | 64 | 13 | 1.0 | 4.0 | 0.00 | 0.00 | 0.00 | 62 | 1016.9 |
| 20260505231130 | 64 | 107 | 2.0 | 4.0 | 0.00 | 0.00 | 0.00 | 62 | 1017.2 |
| 20260505230618 | 63 | 117 | 1.0 | 5.0 | 0.00 | 0.00 | 0.00 | 62 | 1017.2 |
| 20260505230152 | 64 | 99 | 2.0 | 5.0 | 0.00 | 0.00 | 0.00 | 62 | 1017.3 |
| 20260505225619 | 64 | 106 | 0.0 | 3.0 | 0.00 | 0.00 | 0.00 | 66 | 1017.5 |
| 20260505225155 | 63 | 146 | 0.0 | 3.0 | 0.00 | 0.00 | 0.00 | 68 | 1017.6 |
| 20260505224618 | 62 | 145 | 1.0 | 2.0 | 0.00 | 0.00 | 0.00 | 70 | 1017.6 |
| 20260505224112 | 62 | 91 | 1.0 | 3.0 | 0.00 | 0.00 | 0.00 | 71 | 1017.7 |
| 20260505223626 | 61 | 97 | 1.0 | 3.0 | 0.00 | 0.00 | 0.00 | 71 | 1017.8 |
| 20260505223113 | 61 | 154 | 0.0 | 2.0 | 0.00 | 0.00 | 0.00 | 75 | 1017.7 |
| 20260505222630 | 60 | 154 | 0.0 | 2.0 | 0.00 | 0.00 | 0.00 | 75 | 1017.6 |
| 20260505222118 | 59 | 150 | 0.0 | 1.0 | 0.00 | 0.00 | 0.00 | 78 | 1017.6 |
| 20260505221611 | 59 | 163 | 0.0 | 2.0 | 0.00 | 0.00 | 0.00 | 79 | 1017.4 |
| 20260505221115 | 58 | 181 | 0.0 | 3.0 | 0.00 | 0.00 | 0.00 | 80 | 1017.2 |
| 20260505220651 | 57 | 188 | 1.0 | 3.0 | 0.00 | 0.00 | 0.00 | 81 | 1017.0 |
| 20260505220113 | 57 | 181 | 0.0 | 1.0 | 0.00 | 0.00 | 0.00 | 83 | 1017.2 |
| 20260505215648 | 56 | 181 | 1.0 | 3.0 | 0.00 | 0.00 | 0.00 | 85 | 1017.3 |
| 20260505215116 | 56 | 191 | 0.0 | 4.0 | 0.00 | 0.00 | 0.00 | 85 | 1017.2 |
| 20260505214610 | 55 | 203 | 1.0 | 3.0 | 0.00 | 0.00 | 0.00 | 87 | 1017.2 |
| 20260505214125 | 55 | 203 | 1.0 | 3.0 | 0.00 | 0.00 | 0.00 | 88 | 1017.3 |
| 20260505213614 | 54 | 180 | 1.0 | 3.0 | 0.00 | 0.00 | 0.00 | 89 | 1017.3 |
| 20260505213128 | 53 | 178 | 0.0 | 3.0 | 0.00 | 0.00 | 0.00 | 90 | 1017.3 |
| 20260505212617 | 53 | 177 | 1.0 | 2.0 | 0.00 | 0.00 | 0.00 | 90 | 1017.2 |
| 20260505212111 | 52 | 172 | 0.0 | 1.0 | 0.00 | 0.00 | 0.00 | 90 | 1017.3 |
| 20260505211625 | 52 | 172 | 0.0 | 1.0 | 0.00 | 0.00 | 0.00 | 90 | 1017.3 |
| 20260505211115 | 52 | 172 | 0.0 | 1.0 | 0.00 | 0.00 | 0.00 | 90 | 1017.1 |
| 20260505210629 | 52 | 172 | 0.0 | 1.0 | 0.00 | 0.00 | 0.00 | 90 | 1017.1 |
| 20260505210117 | 52 | 172 | 0.0 | 1.0 | 0.00 | 0.00 | 0.00 | 90 | 1017.1 |
| 20260505205635 | 52 | 172 | 0.0 | 0.0 | 0.00 | 0.00 | 0.00 | 90 | 1017.1 |
| 20260505205126 | 52 | 172 | 0.0 | 0.0 | 0.00 | 0.00 | 0.00 | 90 | 1017.0 |
| 20260505204615 | 52 | 172 | 0.0 | 1.0 | 0.00 | 0.00 | 0.00 | 90 | 1017.1 |
| 20260505204132 | 52 | 172 | 0.0 | 1.0 | 0.00 | 0.00 | 0.00 | 90 | 1017.2 |
| 20260505203621 | 52 | 172 | 0.0 | 0.0 | 0.00 | 0.00 | 0.00 | 90 | 1017.2 |
| 20260505203116 | 52 | 172 | 0.0 | 1.0 | 0.00 | 0.00 | 0.00 | 89 | 1017.1 |
| 20260505202628 | 52 | 172 | 0.0 | 1.0 | 0.00 | 0.00 | 0.00 | 89 | 1017.2 |
| 20260505202120 | 52 | 172 | 0.0 | 0.0 | 0.00 | 0.00 | 0.00 | 89 | 1017.1 |
| 20260505201636 | 52 | 172 | 0.0 | 0.0 | 0.00 | 0.00 | 0.00 | 89 | 1017.1 |
| 20260505201127 | 52 | 172 | 0.0 | 0.0 | 0.00 | 0.00 | 0.00 | 89 | 1017.2 |
| 20260505200616 | 52 | 172 | 0.0 | 0.0 | 0.00 | 0.00 | 0.00 | 89 | 1017.1 |
| 20260505200113 | 52 | 172 | 0.0 | 1.0 | 0.00 | 0.00 | 0.00 | 89 | 1017.0 |
| 20260505195630 | 52 | 172 | 0.0 | 1.0 | 0.00 | 0.00 | 0.00 | 89 | 1016.9 |
| 20260505195116 | 52 | 172 | 0.0 | 0.0 | 0.00 | 0.00 | 0.00 | 89 | 1016.9 |
| 20260505194631 | 52 | 172 | 0.0 | 1.0 | 0.00 | 0.00 | 0.00 | 89 | 1016.9 |
| 20260505194116 | 53 | 172 | 0.0 | 1.0 | 0.00 | 0.00 | 0.00 | 89 | 1016.7 |
| 20260505193631 | 53 | 172 | 0.0 | 1.0 | 0.00 | 0.00 | 0.00 | 89 | 1016.9 |